LAB24 Weather Reports


time (UTC)temp
C
wind
direction
speed
KPH
gust
KPH
rain 1hr
cm
rain 24hr
cm
rain mn
cm
humidity
%
barometer
mb
20260507123035 21 136 1.6 6.4 0.00 0.18 0.15 51 1010.8
20260507121512 21 106 0.0 6.4 0.00 0.18 0.15 51 1011.0
20260507120018 22 95 3.2 6.4 0.00 0.18 0.15 54 1010.9
20260507114521 21 110 0.0 8.0 0.00 0.18 0.15 55 1011.0
20260507113027 21 146 1.6 9.7 0.00 0.18 0.15 57 1011.1
20260507111527 21 115 1.6 8.0 0.00 0.18 0.15 57 1011.0
20260507110015 21 143 3.2 9.7 0.00 0.18 0.15 56 1011.1
20260507104518 20 119 0.0 8.0 0.00 0.18 0.15 59 1011.2
20260507103029 20 109 0.0 6.4 0.00 0.18 0.15 61 1011.3
20260507101533 20 107 1.6 6.4 0.00 0.18 0.15 62 1011.4
20260507100026 20 129 3.2 6.4 0.00 0.18 0.15 63 1011.5
20260507094515 20 178 0.0 9.7 0.00 0.18 0.15 58 1011.5
20260507093020 20 92 0.0 11.3 0.00 0.18 0.15 58 1011.2
20260507091532 18 49 0.0 3.2 0.00 0.18 0.15 63 1011.1
20260507090025 19 71 0.0 6.4 0.00 0.18 0.15 65 1011.2
20260507084526 18 196 1.6 4.8 0.00 0.18 0.15 67 1011.3
20260507083017 17 59 0.0 3.2 0.00 0.18 0.15 69 1011.4
20260507081523 17 169 0.0 8.0 0.00 0.18 0.15 71 1011.4
20260507080016 16 182 0.0 3.2 0.00 0.18 0.15 72 1011.6
20260507080008 16 192 0.0 3.2 0.00 0.18 0.15 72 1011.6
20260507074509 16 53 0.0 4.8 0.00 0.18 0.15 75 1011.6
20260507073003 15 350 1.6 4.8 0.00 0.18 0.15 76 1011.7
20260507071506 15 72 0.0 6.4 0.00 0.20 0.15 80 1011.5
20260507070009 14 323 0.0 6.4 0.00 0.20 0.15 83 1011.3
20260507064514 13 131 0.0 6.4 0.00 0.20 0.15 85 1011.1
20260507063013 12 155 0.0 3.2 0.00 0.23 0.15 90 1010.9
20260507061504 11 247 0.0 1.6 0.00 0.30 0.15 90 1010.8
20260507060012 11 267 0.0 1.6 0.00 0.36 0.15 90 1011.1
20260507054508 11 187 0.0 3.2 0.00 0.36 0.15 91 1011.1
20260507053012 11 205 0.0 3.2 0.00 0.36 0.15 91 1011.2
20260507051520 11 254 0.0 1.6 0.00 0.36 0.15 91 1011.1
20260507050010 11 279 0.0 0.0 0.03 0.38 0.15 91 1011.0
20260507044508 10 279 0.0 1.6 0.03 0.38 0.15 91 1010.9
20260507043010 10 290 0.0 3.2 0.03 0.38 0.15 90 1010.8
20260507041516 10 209 0.0 4.8 0.03 0.38 0.15 91 1010.7
20260507040022 11 275 0.0 3.2 0.00 0.36 0.13 90 1010.6
20260507034504 11 282 0.0 3.2 0.00 0.36 0.13 89 1010.7
20260507033007 11 266 0.0 3.2 0.00 0.36 0.13 89 1010.7
20260507031513 11 288 0.0 3.2 0.00 0.36 0.13 89 1010.6
20260507030019 11 277 0.0 4.8 0.00 0.36 0.13 89 1010.6
20260507024525 10 250 0.0 3.2 0.00 0.36 0.13 89 1010.6
20260507023006 10 286 1.6 4.8 0.03 0.38 0.13 88 1010.6
20260507021510 10 284 1.6 4.8 0.03 0.41 0.13 88 1010.5
20260507020023 10 292 1.6 4.8 0.05 0.46 0.13 89 1010.6
20260507014522 10 193 0.0 3.2 0.05 0.48 0.13 90 1010.7
20260507013033 10 327 1.6 3.2 0.05 0.51 0.10 90 1010.8
20260507011523 11 281 1.6 4.8 0.05 0.53 0.10 90 1010.7
20260507010012 11 188 0.0 1.6 0.05 0.51 0.08 90 1010.8
20260507004518 11 135 0.0 1.6 0.05 0.51 0.08 91 1011.0
20260507003022 11 135 0.0 1.6 0.03 0.48 0.05 91 1010.9
20260507001533 11 135 0.0 0.0 0.05 0.48 0.05 91 1011.0
20260507000028 11 135 0.0 1.6 0.03 0.46 0.03 90 1011.0
20260506234514 11 135 0.0 3.2 0.03 0.46 0.03 89 1011.1
20260506233021 11 104 0.0 1.6 0.03 0.46 0.03 88 1011.2
20260506231524 11 96 0.0 4.8 0.00 0.43 0.00 88 1011.3
20260506230009 11 54 0.0 3.2 0.00 0.43 0.00 86 1011.5
20260506224512 11 290 0.0 1.6 0.03 0.43 0.00 86 1011.6
20260506223020 12 113 0.0 1.6 0.03 0.43 0.00 86 1011.6
20260506221504 12 113 0.0 1.6 0.03 0.43 0.00 85 1011.7
20260506220008 12 113 0.0 1.6 0.03 0.43 0.00 84 1011.7
20260506214509 12 107 0.0 1.6 0.00 0.41 0.41 82 1011.6
20260506213016 12 350 0.0 3.2 0.00 0.41 0.41 80 1011.7
20260506211524 12 301 0.0 3.2 0.00 0.41 0.41 80 1011.7
20260506210009 12 279 0.0 3.2 0.00 0.41 0.41 77 1011.8
20260506204510 13 284 0.0 1.6 0.00 0.41 0.41 75 1012.1
20260506203013 13 155 0.0 9.7 0.00 0.41 0.41 73 1012.1
20260506201519 13 360 0.0 4.8 0.00 0.41 0.41 73 1011.9
20260506200024 13 32 0.0 4.8 0.00 0.41 0.41 72 1012.0
20260506194506 13 11 1.6 9.7 0.00 0.41 0.41 71 1011.9
20260506193014 13 327 1.6 4.8 0.00 0.41 0.41 69 1011.7
20260506191518 13 344 1.6 4.8 0.00 0.41 0.41 69 1011.5
20260506190021 13 164 0.0 1.6 0.00 0.41 0.41 72 1011.4
20260506184523 13 109 0.0 1.6 0.00 0.41 0.41 72 1011.3
20260506183011 14 53 0.0 4.8 0.00 0.41 0.41 72 1011.1
20260506181514 14 209 0.0 3.2 0.00 0.41 0.41 71 1010.9
20260506180026 14 5 0.0 1.6 0.00 0.41 0.41 73 1010.9
20260506174524 15 37 0.0 1.6 0.00 0.41 0.41 70 1010.9
20260506173031 15 79 0.0 1.6 0.00 0.41 0.41 68 1010.8
20260506171514 15 111 0.0 1.6 0.00 0.41 0.41 66 1010.8
20260506170016 15 61 0.0 3.2 0.00 0.41 0.41 66 1010.7
20260506164521 16 132 0.0 4.8 0.00 0.41 0.41 64 1010.7
20260506163030 16 305 0.0 4.8 0.00 0.41 0.41 63 1010.7
20260506161524 16 323 0.0 3.2 0.00 0.41 0.41 65 1010.7
20260506160011 16 162 0.0 3.2 0.00 0.41 0.41 65 1010.9
20260506154503 16 179 1.6 3.2 0.00 0.41 0.41 64 1010.9
20260506153004 16 181 0.0 3.2 0.00 0.41 0.41 64 1011.0
20260506151506 16 157 0.0 4.8 0.00 0.41 0.41 58 1011.2
20260506150011 16 105 0.0 3.2 0.00 0.41 0.41 56 1011.0
20260506144513 17 5 0.0 4.8 0.00 0.41 0.41 57 1011.1
20260506143003 17 295 0.0 4.8 0.00 0.41 0.41 58 1011.2
20260506141506 17 316 0.0 6.4 0.00 0.41 0.41 60 1011.1
20260506140008 17 272 0.0 4.8 0.00 0.41 0.41 59 1011.1
20260506134513 18 327 0.0 6.4 0.00 0.41 0.41 57 1011.0
20260506133019 18 173 0.0 4.8 0.00 0.41 0.41 58 1011.0
20260506131506 19 111 1.6 9.7 0.00 0.41 0.41 55 1011.1
20260506130005 20 92 0.0 8.0 0.00 0.41 0.41 53 1011.1
20260506124510 20 159 0.0 12.9 0.00 0.41 0.41 56 1011.3